sat.trackr.live / text

‹ back to catalog

ARSAT 1

NORAD 40272 · 2014-062B

PAYLOAD ACTIVE UNKNOWN

§ Identity

Operator
Country
ARGN
Launch date
2014-10-16
Launch site
FRGUI
Launch vehicle
Mass (kg)
RCS (m²)
85.74

Purposes: comms

External: N2YO · Heavens-Above · Gunter

§ Orbital elements

Epoch: 2026-09-18T11:32:53.911392Z

Period
1,436.09 min
Inclination
0.0083°
Eccentricity
0.0001638
Mean motion
1.00272114 rev/d
Perigee alt
35,779.6 km
Apogee alt
35,793.4 km
Semi-major
42,164.6 km
B*
0.0000e+0
RAAN
215.5782°
Arg perigee
304.1628°
Mean anomaly
299.0890°
Rev number
4,356

§ Raw data

ARSAT 11 40272U 14062B   26261.48117953 -.00000264  00000+0  00000+0 0  99942 40272   0.0083 215.5782 0001638 304.1628 299.0890  1.00272114 43563

JSON: /api/v1/satellites/40272 · /tle

For live sub-satellite position, see the globe view (requires WebGL).

§ Visibility from observer

Set your observer location to see the next 7 days of passes ≥ 10°. The values pass through the URL so the page stays shareable.

No JS? Fill the form by hand. The geolocation button needs JavaScript.